HYSIS (43719 NORAD) Tracking and Keplerian Element Data

This shows tracking and keplerian element data for the satellite.

Feedback or suggestion? Click here.




ElementValue
Catalog43719
NameHYSIS
Epoch Orbit33382
Epoch Day35.15387876
Epoch Year2025
RAAN99.4799
Inclination97.8361
Eccentricity7.55E-05
Argument of Perigee342.011
Mean Anonmoly18.1074
Mean Motion14.78685717
Decay Rate2.242E-05
L11 43719U 18096A 25035.15387876 .00002242 79650-9 30617-3 0 9994
L22 43719 97.8361 99.4799 0000755 342.0110 18.1074 14.78685717333829



Live tracking and technical data element details for HYSIS (NORAD 43719). HYSIS can be tracked NOW for your location showing map with azimuth and elevation plus other details from your city location.







IsCatalogInMostPopularTable: catalog: 43719, numindb: 433
Update: records affected: 1



GetName: 43719 HYSIS

Hit Count: updated at: Sat, 24 May 2025 16:16:11 GMT